Weather History for Elmendorf AFB, AK

Change the Weather History Date:

Monday, December 23, 2013

  Actual Average Record
Temperature  
Mean Temperature 9 °F -  
Max Temperature 19 °F 20 °F 51 °F (1970)
Min Temperature -1 °F 7 °F -21 °F (1961)
Degree Days  
Heating Degree Days 56    
Moisture  
Dew Point 1 °F    
Average Humidity 63    
Maximum Humidity 86    
Minimum Humidity 41    
Precipitation  
Precipitation 0.00 in - - ()
Sea Level Pressure  
Sea Level Pressure 29.97 in    
Wind  
Wind Speed 7 mph (WNW)    
Max Wind Speed 13 mph    
Max Gust Speed -    
Visibility 10 miles    
Events      
Averages and records for this station are not official NWS values.
T = Trace of Precipitation, MM = Missing Value Source: NWS Daily Summary

Daily Weather History Graph

Daily Weather History Graph

Search for Another Location

Airport:

Trip Planner

Search our weather history database for the weather conditions in past years. The results will help you decide how hot, cold, wet, or windy it might be!

Date:

Astronomy

Dec. 23, 2013 Rise Set
Actual Time 10:15 AM AKST 3:42 PM AKST
Civil Twilight 9:12 AM AKST 4:44 PM AKST
Nautical Twilight 8:12 AM AKST 5:44 PM AKST
Astronomical Twilight 7:19 AM AKST 6:38 PM AKST
Moon 11:54 PM AKST (12/23) 12:00 PM AKST (12/23)
Length of Visible Light 7h 31m
Length of Day
5h 26m
Waning Gibbous, 66% of the Moon is Illuminated
Dec 23
Waning Gibbous
Dec 25
Last Quarter
Jan 1
New
Jan 7
First Quarter
Jan 15
Full

Hourly Weather History & Observations

Time (AKST) Temp. Windchill Dew Point Humidity Pressure Visibility Wind Dir Wind Speed Gust Speed Precip Events Conditions
12:58 AM 19.6 °F 11.7 °F 2.5 °F 48% 29.75 in 10.0 mi NW 5.8 mph - -   Mostly Cloudy
1:58 AM 18.1 °F 8.9 °F 1.8 °F 49% 29.79 in 10.0 mi WNW 6.9 mph - -   Clear
2:58 AM 15.1 °F 3.3 °F 1.4 °F 55% 29.80 in 10.0 mi NW 9.2 mph - -   Clear
3:58 AM 11.1 °F -0.6 °F 1.2 °F 64% 29.81 in 10.0 mi NW 8.1 mph - -   Scattered Clouds
4:58 AM 14.5 °F 0.5 °F 2.3 °F 58% 29.82 in 10.0 mi NW 12.7 mph - -   Mostly Cloudy
5:58 AM 12.9 °F 3.8 °F 0.5 °F 58% 29.85 in 10.0 mi WNW 5.8 mph - -   Clear
6:58 AM 17.2 °F 5.2 °F -1.1 °F 45% 29.86 in 10.0 mi WNW 10.4 mph - -   Clear
7:58 AM 13.3 °F 3.0 °F 0.3 °F 56% 29.87 in 10.0 mi NW 6.9 mph - -   Clear
8:58 AM 17.4 °F 9.1 °F -0.4 °F 46% 29.89 in 10.0 mi NW 5.8 mph - -   Clear
9:58 AM 18.0 °F 11.1 °F -2.0 °F 41% 29.93 in 10.0 mi WSW 4.6 mph - -   Clear
10:58 AM 14.7 °F 7.3 °F 0.9 °F 54% 29.95 in 10.0 mi SW 4.6 mph - -   Clear
11:58 AM 16.7 °F 4.5 °F 0.9 °F 50% 29.97 in 10.0 mi West 10.4 mph - -   Clear
12:58 PM 16.3 °F 4.9 °F 2.7 °F 55% 29.99 in 10.0 mi West 9.2 mph - -   Clear
1:58 PM 14.9 °F 7.5 °F 3.4 °F 60% 30.02 in 10.0 mi WNW 4.6 mph - -   Clear
2:58 PM 10.0 °F -0.9 °F 2.7 °F 72% 30.03 in 10.0 mi WNW 6.9 mph - -   Clear
3:58 PM 3.7 °F -9.6 °F -2.7 °F 74% 30.04 in 10.0 mi West 8.1 mph - -   Clear
4:58 PM 12.2 °F 0.7 °F 1.9 °F 64% 30.05 in 10.0 mi West 8.1 mph - -   Clear
5:58 PM 12.7 °F -1.8 °F 5.2 °F 72% 30.06 in 10.0 mi West 12.7 mph - -   Clear
6:58 PM 7.2 °F -3.0 °F 1.9 °F 79% 30.09 in 10.0 mi NW 5.8 mph - -   Clear
7:58 PM 6.6 °F -5.0 °F 2.7 °F 84% 30.10 in 10.0 mi WSW 6.9 mph - -   Clear
8:58 PM 1.6 °F - -2.2 °F 84% 30.12 in 10.0 mi Calm Calm - -   Clear
9:58 PM -1.8 °F - -6.0 °F 83% 30.14 in 10.0 mi NNW 2.3 mph - -   Clear
10:58 PM 5.0 °F -5.6 °F 1.6 °F 86% 30.14 in 10.0 mi NNW 5.8 mph - -   Clear
11:58 PM 1.9 °F -9.2 °F -2.0 °F 83% 30.15 in 3.0 mi WNW 5.8 mph - -   Haze